Погода в Пирогово

Россия / Удмуртская Республика     56°46′47″N   53°09′24″E
темп.,
°C
ветер,
м/с
пор.,
м/с
влажн.,
%
обл.,
%
осадки,
мм/ч
давл.,
гПа
погр.,
м
8 мая, сб
сб801:00+11ю347578 0.0 101571
04:00+11зюз2277100 0.0 101619
07:00+12з2271100 0.0 1016122
10:00+16зюз2358100 0.0 1017749
13:00+15зсз4568100 1.9 1017586
16:00+16з1258100 2.1 10171064
19:00+15юв2265100 0.0 101624
22:00+11юв22825 0.1 101627
9 мая, вс
вс901:00+10ююв22875 0.0 101616
04:00+9юв22860 0.0 101718
07:00+12юв24760 0.0 1017184
10:00+17юв45565 0.0 1016796
13:00+20ююв45421 0.0 10161925
16:00+21ююв45374 0.0 10162261
19:00+18юв495560 0.0 1016214
22:00+14юв41163100 0.0 1017184
10 мая, пн
пн1001:00+13юв396381 0.0 1017157
04:00+13юв4106296 0.0 1018195
07:00+14ююв3106499 0.0 1019272
10:00+17ю4758100 0.0 1020412
13:00+21ю4641100 0.0 10211182
16:00+20з2454100 0.0 1021274
19:00+15ссз5882100 0.2 1023428
22:00+12ссв4783100 0.3 1025402
11 мая, вт
вт1101:00+11с4785100 0.0 1026485
04:00+10с4988100 0.0 1028445
07:00+11ссв567962 0.0 1029509
10:00+14ссв45580 0.0 1030910
13:00+16ссв45375 0.0 10301210
16:00+18св44305 0.0 10301346
19:00+15всв34477 0.0 103089
22:00+11всв225111 0.0 103111
12 мая, ср
ср1201:00+10ссв22559 0.0 103211
04:00+9св225919 0.0 103213
07:00+12св235455 0.0 1032166
10:00+17всв2343100 0.0 1032650
13:00+20всв224186 0.0 1031963
16:00+21всв12392 0.0 10301246
19:00+20юв22524 0.0 102919
22:00+15з116172 0.0 102911